Philadelphia, PA

6:46 PM EDT on July 23, 2016 (GMT -0400)
Northeast Philadelphia

Weather History for KPNE - September, 2012

Change the Weather History Date:

Friday, September 14, 2012

  Actual Average Record
Temperature  
Mean Temperature 68 °F -  
Max Temperature 80 °F 76 °F 93 °F (2008)
Min Temperature 57 °F 57 °F 51 °F (2001)
Cooling Degree Days 4    
Growing Degree Days 18 (Base 50)    
Moisture  
Dew Point 58 °F    
Average Humidity 69    
Maximum Humidity 96    
Minimum Humidity 39    
Precipitation  
Precipitation 0.00 in - - ()
Sea Level Pressure  
Sea Level Pressure 30.21 in    
Wind  
Wind Speed 2 mph (SSW)    
Max Wind Speed 6 mph    
Max Gust Speed -    
Visibility 10 miles    
Events      
Averages and records for this station are not official NWS values.
T = Trace of Precipitation, MM = Missing Value Source: NWS Daily Summary

Daily Weather History Graph

Daily Weather History Graph

Search for Another Location

Airport or City:

Trip Planner

Search our weather history database for the weather conditions in past years. The results will help you decide how hot, cold, wet, or windy it might be!

Date:

Astronomy

Sep. 14, 2012 Rise Set
Actual Time 6:40 AM EDT 7:09 PM EDT
Civil Twilight 6:13 AM EDT 7:36 PM EDT
Nautical Twilight 5:41 AM EDT 8:08 PM EDT
Astronomical Twilight 5:08 AM EDT 8:41 PM EDT
Moon 5:02 AM EDT (9/14) 6:04 PM EDT (9/14)
Length of Visible Light 13h 23m
Length of Day
12h 29m
Waning Crescent, 3% of the Moon is Illuminated
Sep 14
Waning Crescent
Sep 15
New
Sep 22
First Quarter
Sep 29
Full
Oct 8
Last Quarter

Hourly Weather History & Observations

Time (EDT) Temp. Heat Index Dew Point Humidity Pressure Visibility Wind Dir Wind Speed Gust Speed Precip Events Conditions
12:54 AM 64.0 °F - 57.9 °F 80% 30.31 in 10.0 mi Calm Calm - N/A   Clear
1:54 AM 63.0 °F - 57.9 °F 84% 30.30 in 10.0 mi Calm Calm - N/A   Clear
2:54 AM 60.1 °F - 57.0 °F 90% 30.30 in 10.0 mi NW 3.5 mph - N/A   Clear
3:54 AM 60.1 °F - 57.0 °F 90% 30.29 in 10.0 mi Calm Calm - N/A   Clear
4:54 AM 57.9 °F - 55.9 °F 93% 30.28 in 10.0 mi Calm Calm - N/A   Clear
5:54 AM 57.0 °F - 55.0 °F 93% 30.27 in 10.0 mi Calm Calm - N/A   Clear
6:54 AM 57.0 °F - 55.9 °F 96% 30.28 in 9.0 mi Calm Calm - N/A   Clear
7:54 AM 62.1 °F - 60.1 °F 93% 30.27 in 10.0 mi Calm Calm - N/A   Clear
8:54 AM 66.9 °F - 62.1 °F 84% 30.26 in 10.0 mi Calm Calm - N/A   Clear
9:54 AM 71.1 °F - 61.0 °F 70% 30.26 in 10.0 mi WSW 3.5 mph - N/A   Clear
10:54 AM 73.9 °F - 62.1 °F 66% 30.25 in 10.0 mi SSW 3.5 mph - N/A   Clear
11:54 AM 75.9 °F - 55.9 °F 50% 30.23 in 10.0 mi SSE 4.6 mph - N/A   Clear
12:54 PM 77.0 °F - 55.9 °F 48% 30.22 in 10.0 mi SSW 3.5 mph - N/A   Clear
1:54 PM 79.0 °F - 57.0 °F 47% 30.19 in 10.0 mi Variable 4.6 mph - N/A   Clear
2:54 PM 79.0 °F - 55.0 °F 44% 30.17 in 10.0 mi Variable 5.8 mph - N/A   Clear
3:54 PM 80.1 °F 79.9 °F 53.1 °F 39% 30.15 in 10.0 mi WSW 4.6 mph - N/A   Clear
4:54 PM 78.1 °F - 54.0 °F 43% 30.14 in 10.0 mi SSW 3.5 mph - N/A   Clear
5:54 PM 77.0 °F - 57.0 °F 50% 30.14 in 10.0 mi Variable 3.5 mph - N/A   Clear
6:54 PM 75.9 °F - 53.1 °F 45% 30.14 in 10.0 mi South 3.5 mph - N/A   Clear
7:54 PM 73.0 °F - 55.0 °F 53% 30.13 in 10.0 mi Calm Calm - N/A   Clear
8:54 PM 70.0 °F - 57.9 °F 65% 30.14 in 10.0 mi SE 3.5 mph - N/A   Clear
9:54 PM 70.0 °F - 61.0 °F 73% 30.12 in 10.0 mi SSW 4.6 mph - N/A   Clear
10:54 PM 68.0 °F - 62.1 °F 81% 30.12 in 10.0 mi SW 5.8 mph - N/A   Clear
11:54 PM 68.0 °F - 62.1 °F 81% 30.12 in 10.0 mi SW 4.6 mph - N/A   Clear